• Em Portugal
  • Lista de países
  • Para 7 dias
  • Temperatura da água
  • Mapas de satélite
  • Mapa do tempo
  • Widgets de tempo
  • user-avatar
    Iniciar Sessão

    Previsão horária em Strukovo

    Hoje, 25 Maio, Sexta-feira

    Tempo Temperatura Precipitação Vento Pressão Humidade
    00:00 +13°C° 0 mm 3 m/s 749 mmHg 90%
    01:00 +13°C° 0 mm 3 m/s 749 mmHg 90%
    02:00 +12°C° 0 mm 3 m/s 749 mmHg 92%
    03:00 +12°C° 0 mm 3 m/s 749 mmHg 92%
    04:00 +13°C° 0 mm 4 m/s 750 mmHg 92%
    05:00 +13°C° 0 mm 4 m/s 750 mmHg 91%
    06:00 +14°C° 0 mm 5 m/s 750 mmHg 86%
    07:00 +16°C° 0 mm 5 m/s 750 mmHg 81%
    08:00 +17°C° 0 mm 5 m/s 750 mmHg 77%
    09:00 +19°C° 0 mm 6 m/s 751 mmHg 73%
    10:00 +20°C° 0 mm 6 m/s 751 mmHg 68%
    11:00 +21°C° 0 mm 6 m/s 751 mmHg 64%
    12:00 +21°C° 0 mm 6 m/s 751 mmHg 62%
    13:00 +21°C° 0 mm 6 m/s 751 mmHg 61%
    14:00 +21°C° 0 mm 6 m/s 751 mmHg 59%
    15:00 +20°C° 0 mm 6 m/s 752 mmHg 60%
    16:00 +19°C° 0 mm 5 m/s 752 mmHg 61%
    17:00 +19°C° 0 mm 5 m/s 752 mmHg 62%
    18:00 +16°C° 0 mm 5 m/s 753 mmHg 65%
    19:00 +14°C° 0 mm 4 m/s 753 mmHg 67%
    20:00 +13°C° 0 mm 4 m/s 754 mmHg 70%
    21:00 +12°C° 0 mm 4 m/s 754 mmHg 70%
    22:00 +12°C° 0 mm 4 m/s 755 mmHg 70%
    23:00 +11°C° 0 mm 4 m/s 755 mmHg 69%

    Amanhã, 26 Maio, Sábado

    Tempo Temperatura Precipitação Vento Pressão Humidade
    00:00 +10°C° 0 mm 4 m/s 755 mmHg 71%
    01:00 +10°C° 0 mm 4 m/s 756 mmHg 72%
    02:00 +9°C° 0 mm 3 m/s 756 mmHg 74%
    03:00 +9°C° 0 mm 3 m/s 757 mmHg 74%
    04:00 +9°C° 0 mm 3 m/s 757 mmHg 75%
    05:00 +9°C° 0 mm 3 m/s 758 mmHg 75%
    06:00 +10°C° 0 mm 4 m/s 758 mmHg 70%
    07:00 +12°C° 0 mm 4 m/s 759 mmHg 64%
    08:00 +13°C° 0 mm 4 m/s 759 mmHg 59%
    09:00 +14°C° 0 mm 4 m/s 759 mmHg 56%
    10:00 +15°C° 0 mm 5 m/s 759 mmHg 54%
    11:00 +16°C° 0 mm 5 m/s 759 mmHg 51%
    12:00 +16°C° 0 mm 5 m/s 759 mmHg 51%
    13:00 +17°C° 0 mm 5 m/s 759 mmHg 51%
    14:00 +18°C° 0 mm 4 m/s 759 mmHg 51%
    15:00 +18°C° 0 mm 4 m/s 759 mmHg 53%
    16:00 +18°C° 0 mm 4 m/s 758 mmHg 56%
    17:00 +17°C° 0 mm 3 m/s 758 mmHg 59%
    18:00 +14°C° 0 mm 3 m/s 758 mmHg 64%
    19:00 +14°C° 0 mm 2 m/s 759 mmHg 70%
    20:00 +12°C° 0 mm 2 m/s 759 mmHg 75%
    21:00 +10°C° 0 mm 2 m/s 759 mmHg 77%
    22:00 +9°C° 0 mm 2 m/s 759 mmHg 78%
    23:00 +9°C° 0 mm 2 m/s 759 mmHg 79%

    Depois de amanhã, 27 Maio, Domingo

    Tempo Temperatura Precipitação Vento Pressão Humidade
    00:00 +8°C° 0 mm 2 m/s 759 mmHg 80%
    01:00 +8°C° 0 mm 2 m/s 760 mmHg 82%
    02:00 +8°C° 0 mm 1 m/s 760 mmHg 83%
    03:00 +9°C° 0 mm 1 m/s 760 mmHg 82%
    04:00 +9°C° 0 mm 1 m/s 760 mmHg 82%
    05:00 +10°C° 0 mm 1 m/s 760 mmHg 81%
    06:00 +12°C° 0 mm 1 m/s 759 mmHg 74%
    07:00 +13°C° 0 mm 1 m/s 759 mmHg 67%
    08:00 +15°C° 0 mm 1 m/s 759 mmHg 60%
    09:00 +16°C° 0 mm 1 m/s 759 mmHg 56%
    10:00 +18°C° 0 mm 1 m/s 758 mmHg 52%
    11:00 +19°C° 0 mm 1 m/s 758 mmHg 47%
    12:00 +20°C° 0 mm 1 m/s 757 mmHg 47%
    13:00 +21°C° 0 mm 1 m/s 757 mmHg 46%
    14:00 +21°C° 0 mm 1 m/s 757 mmHg 45%
    15:00 +21°C° 0 mm 1 m/s 756 mmHg 48%
    16:00 +21°C° 0 mm 1 m/s 756 mmHg 51%
    17:00 +20°C° 0 mm 2 m/s 755 mmHg 54%
    18:00 +19°C° 0 mm 1 m/s 755 mmHg 60%
    19:00 +16°C° 0 mm 1 m/s 755 mmHg 66%
    20:00 +14°C° 0 mm 1 m/s 755 mmHg 73%
    21:00 +13°C° 0 mm 2 m/s 755 mmHg 75%
    22:00 +12°C° 0 mm 2 m/s 755 mmHg 77%
    23:00 +12°C° 0 mm 2 m/s 755 mmHg 79%

    28 Maio, Segunda-feira

    Tempo Temperatura Precipitação Vento Pressão Humidade
    00:00 +10°C° 0 mm 2 m/s 755 mmHg 80%
    01:00 +10°C° 0 mm 2 m/s 755 mmHg 82%
    02:00 +10°C° 0 mm 2 m/s 755 mmHg 84%
    03:00 +10°C° 0 mm 2 m/s 755 mmHg 84%
    04:00 +12°C° 0 mm 2 m/s 755 mmHg 85%
    05:00 +12°C° 0 mm 2 m/s 755 mmHg 85%
    06:00 +14°C° 0 mm 2 m/s 755 mmHg 81%
    07:00 +16°C° 0 mm 2 m/s 755 mmHg 77%
    08:00 +18°C° 0 mm 2 m/s 755 mmHg 73%
    09:00 +19°C° 0 mm 3 m/s 755 mmHg 69%
    10:00 +21°C° 0 mm 3 m/s 756 mmHg 65%
    11:00 +22°C° 0 mm 4 m/s 756 mmHg 61%
    12:00 +22°C° 0 mm 4 m/s 756 mmHg 59%
    13:00 +22°C° 0 mm 4 m/s 756 mmHg 56%
    14:00 +22°C° 0 mm 4 m/s 756 mmHg 54%
    15:00 +22°C° 0 mm 4 m/s 756 mmHg 56%
    16:00 +21°C° 0 mm 3 m/s 756 mmHg 58%
    17:00 +21°C° 0 mm 3 m/s 756 mmHg 60%
    18:00 +19°C° 0 mm 3 m/s 756 mmHg 66%
    19:00 +17°C° 0 mm 2 m/s 756 mmHg 71%
    20:00 +15°C° 0 mm 2 m/s 756 mmHg 76%
    21:00 +14°C° 0 mm 2 m/s 757 mmHg 77%
    22:00 +13°C° 0 mm 2 m/s 757 mmHg 78%
    23:00 +12°C° 0 mm 2 m/s 758 mmHg 79%

    29 Maio, Terça-feira

    Tempo Temperatura Precipitação Vento Pressão Humidade
    00:00 +10°C° 0 mm 2 m/s 758 mmHg 77%
    01:00 +9°C° 0 mm 2 m/s 758 mmHg 76%
    02:00 +8°C° 0 mm 2 m/s 758 mmHg 75%
    03:00 +9°C° 0 mm 2 m/s 758 mmHg 75%
    04:00 +10°C° 0 mm 1 m/s 759 mmHg 75%
    05:00 +10°C° 0 mm 1 m/s 759 mmHg 75%
    06:00 +12°C° 0 mm 1 m/s 759 mmHg 68%
    07:00 +14°C° 0 mm 1 m/s 759 mmHg 62%
    08:00 +18°C° 0 mm 1 m/s 759 mmHg 55%
    09:00 +19°C° 0 mm 1 m/s 759 mmHg 51%
    10:00 +20°C° 0 mm 1 m/s 758 mmHg 48%
    11:00 +21°C° 0 mm 1 m/s 758 mmHg 45%
    12:00 +22°C° 0 mm 1 m/s 758 mmHg 45%
    13:00 +23°C° 0 mm 1 m/s 757 mmHg 45%
    14:00 +23°C° 0 mm 1 m/s 757 mmHg 46%
    15:00 +23°C° 0 mm 1 m/s 757 mmHg 48%
    16:00 +23°C° 0 mm 1 m/s 756 mmHg 51%
    17:00 +23°C° 0 mm 1 m/s 756 mmHg 54%
    18:00 +21°C° 0 mm 1 m/s 756 mmHg 60%
    19:00 +19°C° 0 mm 1 m/s 756 mmHg 66%
    20:00 +15°C° 0 mm 1 m/s 755 mmHg 72%
    21:00 +15°C° 0 mm 1 m/s 755 mmHg 73%
    22:00 +14°C° 0 mm 1 m/s 755 mmHg 74%
    23:00 +14°C° 0 mm 2 m/s 755 mmHg 76%

    30 Maio, Quarta-feira

    Tempo Temperatura Precipitação Vento Pressão Humidade
    00:00 +13°C° 0 mm 2 m/s 755 mmHg 78%
    01:00 +13°C° 0 mm 2 m/s 755 mmHg 81%
    02:00 +13°C° 0 mm 2 m/s 755 mmHg 83%
    03:00 +13°C° 0 mm 2 m/s 755 mmHg 83%
    04:00 +13°C° 0 mm 2 m/s 754 mmHg 82%
    05:00 +13°C° 0 mm 2 m/s 754 mmHg 82%
    06:00 +14°C° 0 mm 3 m/s 754 mmHg 77%
    07:00 +17°C° 0 mm 3 m/s 753 mmHg 72%
    08:00 +20°C° 0 mm 4 m/s 753 mmHg 67%
    09:00 +21°C° 0 mm 4 m/s 753 mmHg 63%
    10:00 +22°C° 0 mm 5 m/s 752 mmHg 59%
    11:00 +23°C° 0 mm 5 m/s 752 mmHg 55%
    12:00 +25°C° 0 mm 5 m/s 751 mmHg 54%
    13:00 +25°C° 0 mm 5 m/s 751 mmHg 53%
    14:00 +26°C° 0 mm 6 m/s 750 mmHg 53%
    15:00 +25°C° 0 mm 5 m/s 750 mmHg 57%
    16:00 +25°C° 0 mm 4 m/s 749 mmHg 61%
    17:00 +25°C° 0 mm 4 m/s 749 mmHg 65%
    18:00 +22°C° 0 mm 4 m/s 748 mmHg 70%
    19:00 +20°C° 0 mm 4 m/s 748 mmHg 76%
    20:00 +18°C° 0 mm 3 m/s 748 mmHg 81%
    21:00 +18°C° 0 mm 4 m/s 748 mmHg 83%
    22:00 +18°C° 0 mm 4 m/s 748 mmHg 85%
    23:00 +17°C° 0 mm 4 m/s 747 mmHg 87%
    Mostrar mais